Showing default

QZS-6, 62876

Orbit data source: Space-Track

QZS-6, 62876 is a Japanese payload satellite in GEO that was launched on Sun, 02 Feb 2025 UTC via a H3-SS2 launch vehicle from the Tanegashima Space Center (TNSTA). Payloads include a variety of satellites, spacecraft, and rockets equipped with specific instruments for various scientific and technological missions. These include communications satellites like Starlink; space stations such as the ISS; scientific satellites like the Hubble; Earth observation satellites from companies like Planet Labs, Umbra, and HawkEye 360; GPS; miniature CubeSats for education and research; and military/defense satellites.

Not visible in the next 10 days
QZS-6 details
Identifier
62876, 2025-023A
Orbit
GEO
Last TLE update21 hours ago
Origin
Flag of JPNUSS/JAXA (JP / JPN)
ManufacturerMELCO
MissionOperational spacecraft
Bus & MotorQZSS, LAPS-500?
Mass4,900 kg wet, ~2,000 kg dry
Launch date (UTC)
2025-02-02 (2 weeks ago)
Launch vehicle
H3-SS2
Launch site
Tanegashima Space Center (TNSTA)
Object type
Payload
Rocket body
Debris
Shape & HBRUnknown
Radar Cross SectionRCS unknown

Expand to show TLE details & history

TLE from 21 hours ago
0 QZS-6
1 62876U 25023A   25046.63727997 -.00000233  00000-0  00000-0 0  9997
2 62876   0.0717 316.2485 0001352  40.6817 108.8356  1.00275414    85
Epoch: 2025-02-15T15:17Z
Definitive object data (Epoch: 2025-02-15T15:17:40.989Z)
Latitude0.03319°
Longitude90.50911°
Altitude35,786.937 km
Speed3.075 km/s
True Right ascension07h 03m 14s
True Declination0° 01' 59"
Sunlit
Object was in daylight at TLE epoch
Visualization TLE readout
Latitude0.04841°
Longitude43.99618°
Altitude35,782.499 km
Speed3.075 km/s
Apparent Right ascension03h 50m 44s
Apparent Declination-4° 55' 05"
Sunlit
Object is in daylight
Visualization observer readout
Local Sidereal Time14:54:39
Azimuth336.475° NNW
Elevation-52.788°
Doppler factor1
Orbital elements
Apogee altitude35,792.349 km
Perigee altitude35,780.947 km
Semi-major axis42,164.785 km
Eccentricity0.0001352
Inclination0.0717°
RAAN316.2485°
Arg. of periapsis40.6817°
True anomaly108.85026°
Mean anomaly108.8356°
Eccentric anomaly108.84293°
Mean motion0.25068 °/min
BSTARUnknown
Orbital period1436.1 mins
Loading historical data...
62876 neighbors
Authenticating...
Loading maneuver chart data...
Loading historical data...
Loading historical data...
Loading historical data...
Loading historical data...
Loading historical data...
Loading historical data...
Loading historical data...
Other satellites on launch #23 in the year 2025 (2025-02-02 UTC)

QZS-6 Visibility forecast

Observer location: undefined°, undefined

QZS-6 is not visible in the next 10 days
Span
Click to sort rows by Start time (UTC) header in descending order
Start Az.
Max El. time (UTC)
Max El. Az.
Max El.
End time (UTC)
End Az.
|